Location: Newark
(19.4108°N, 99.1922°W)
Time: 18:47:48
(UTC+00:00)

N. Korean satellite - Visible Passes

Search period start: 27 January 2020 00:00
Search period end: 06 February 2020 00:00
Orbit: 454 x 507 km, 97.2° (Epoch: 27 January)

Date Brightness Start Highest point End Pass type
(mag) Time Alt. Az. Time Alt. Az. Time Alt. Az.
27 Jan 10.1 11:19:48 10° ENE 11:21:15 12° E 11:22:42 10° ESE visible
28 Jan 10.5 00:51:36 10° WSW 00:51:55 10° W 00:52:14 10° W visible
28 Jan 6.7 12:25:31 10° N 12:29:04 54° WNW 12:32:40 10° SSW visible
29 Jan 7.4 12:00:03 10° NNE 12:03:37 54° E 12:07:14 10° S visible
30 Jan 9.3 11:35:17 10° NE 11:38:08 22° E 11:41:01 10° SSE visible
31 Jan 7.5 12:42:41 10° NNW 12:45:52 28° WNW 12:49:05 10° SW visible
01 Feb 6.5 12:16:48 10° N 12:20:28 76° WNW 12:24:09 10° SSW visible
02 Feb 8.1 11:51:32 10° NNE 11:55:00 39° E 11:58:29 10° S visible
03 Feb 9.7 11:27:06 10° ENE 11:29:29 16° E 11:31:53 10° SE visible
04 Feb 7.1 12:33:49 10° N 12:37:16 39° WNW 12:40:44 10° SSW visible
05 Feb 6.8 12:08:08 10° NNE 12:11:50 78° E 12:15:32 10° S visible
